Location: Constantia
(34.0183°S, 18.4411°E)
Time: 04:58:30
(UTC+00:00)

Daily predictions for brighter satellites

Satellite Brightness Start Highest point End
(mag) Time Altitude Azimuth Time Altitude Azimuth Time Altitude Azimuth
Cosmos 2297 Rocket 4.4 00:42:45 18° SSW 00:42:45 18° SSW 00:44:43 10° S
USA 234 4.0 00:39:16 10° SE 00:44:24 47° S 00:44:24 47° S
ADEOS II 4.4 00:51:44 16° SSW 00:51:44 16° SSW 00:52:48 10° SSW
SL-16 R/B 4.1 00:48:24 10° SSW 00:50:30 23° SSW 00:50:30 23° SSW
IDEFIX/ARIANE 42P 4.1 00:56:41 32° SE 00:56:41 32° SE 01:00:15 10° S
CENTAUR R/B 3.7 00:55:50 43° ENE 00:55:50 43° ENE 01:02:47 10° SE
Cosmos 2227 Rocket 4.4 00:59:33 17° SSW 00:59:33 17° SSW 01:01:32 10° S
ATLAS 3B R/B 4.2 00:57:12 26° ENE 00:57:46 27° ENE 01:03:43 10° SE
FALCON 9 R/B 4.0 01:01:23 38° NE 01:01:23 38° NE 01:16:33 10° ESE
USA 238 DEB 4.0 01:03:56 71° SSE 01:03:56 71° SSE 01:10:24 10° SSE
USA 238 4.0 01:04:00 71° SSE 01:04:00 71° SSE 01:10:29 10° SSE
SL-16 R/B 2.5 01:27:14 10° SSE 01:33:00 77° S 01:33:00 77° S
Cosmos 1371 Rocket 4.5 01:41:56 57° E 01:41:56 57° E 01:46:54 10° SSE
SeaSat 1 2.9 01:42:45 10° SSE 01:46:46 57° S 01:46:46 57° S
H-2A R/B 3.4 01:46:05 10° SE 01:49:56 33° E 01:49:56 33° E
Cosmos 2154 Rocket 4.1 01:50:59 62° WSW 01:50:59 62° WSW 01:57:02 10° S
Cosmos 2341 Rocket 4.1 01:49:20 55° NNE 01:50:41 72° E 01:57:05 10° S
CZ-2C R/B 3.4 01:49:38 28° NE 01:51:37 43° ESE 01:56:08 10° S
Meteor 2-17 Rocket 4.3 01:55:11 74° W 01:55:15 74° W 02:01:28 10° S
ERS-2 4.4 01:51:44 10° S 01:53:05 21° S 01:53:05 21° S
Cosmos 2263 Rocket 2.5 01:56:35 56° SW 01:56:35 56° SW 02:01:44 10° SSE
SL-8 Rocket 4.5 01:55:07 34° NNE 01:57:46 57° E 02:03:58 10° SSE
Cosmos 1844 Rocket 4.5 01:54:58 17° NE 01:57:59 26° ENE 02:02:36 10° SE
NOSS 3-2 (C) 4.2 01:56:15 54° WNW 01:58:03 66° WSW 02:05:51 10° SSE
Cosmos 1624 Rocket 4.0 02:01:19 76° NE 02:01:35 79° ENE 02:06:57 10° SSE
Cosmos 1455 3.3 02:02:34 10° S 02:05:20 42° SSE 02:05:20 42° SSE
Nadezhda 3 Rocket 4.0 02:10:03 10° SSW 02:16:05 54° W 02:16:29 53° WNW
Cosmos 1900 4.3 02:16:40 70° W 02:16:57 72° WSW 02:22:06 10° SSE
USA 32 3.9 02:16:50 55° N 02:18:04 90° W 02:23:24 10° S
CZ-4B R/B 4.3 02:19:35 10° ESE 02:21:10 13° E 02:22:44 10° ENE
Cosmos 2056 Rocket 3.4 02:21:47 62° WNW 02:22:19 68° WSW 02:27:29 10° SSE
Meteor 2-10 Rocket 3.7 02:17:56 10° S 02:23:52 80° W 02:27:02 28° N
BREEZE-M DEB 2.8 02:19:20 10° SW 02:26:06 84° SE 02:28:44 10° NE
Cosmos-2242 3.5 02:22:30 10° SSW 02:26:06 48° SW 02:26:06 48° SW
CZ-4B R/B 4.1 02:23:49 10° NE 02:27:18 40° ESE 02:31:00 10° S
CZ-4C R/B 3.2 02:25:10 10° SSE 02:28:17 67° ESE 02:28:17 67° ESE
Cosmos 1703 4.3 02:32:40 34° SW 02:32:40 34° SW 02:35:26 10° S
H-2A R/B 2.9 02:27:47 10° NNE 02:32:15 67° ESE 02:36:42 10° S
MSX 4.3 02:32:40 38° W 02:32:40 38° W 02:37:48 10° SSW
Aureole 1 Rocket 3.0 02:30:23 10° SSW 02:34:21 63° WNW 02:36:28 32° N
IDEFIX/ARIANE 42P 4.3 02:37:31 16° WSW 02:37:31 16° WSW 02:39:07 10° SW
OAO 3 Copernicus 4.2 02:37:15 40° W 02:39:07 85° N 02:44:15 10° ENE
Landsat 5 3.7 02:35:09 10° SSE 02:39:31 77° ENE 02:41:41 30° N
Cosmos 1339 Rocket 4.5 02:34:07 10° S 02:40:25 85° E 02:46:33 10° N
Cosmos 1959 Rocket 4.5 02:38:08 25° NNW 02:42:07 75° W 02:48:33 10° S
BREEZE-M DEB (TANK) 4.5 02:43:19 10° SSW 02:44:22 11° S 02:45:41 10° SSE
Lacrosse 5 rocket 3.2 02:43:10 15° NNE 02:45:25 23° ENE 02:48:33 10° ESE
CENTAUR R/B 3.6 02:43:03 28° W 02:46:31 41° SW 02:53:16 10° SSE
IUS-9 SRM-1 4.4 02:45:13 27° NNW 02:47:05 32° N 03:02:08 10° ENE
SAR-Lupe-1 3.9 02:44:16 10° S 02:47:55 81° WSW 02:48:49 48° NNW
ATLAS 3B R/B 3.1 02:44:29 31° WNW 02:48:02 56° SW 02:55:22 10° SSE
Cosmos 407 Rocket 3.4 02:44:03 10° SSW 02:49:23 68° WNW 02:54:41 10° N
Meteor 1-28 Rocket 3.1 02:47:57 10° S 02:51:51 75° WSW 02:53:18 36° NNW
Cosmos 1603 4.2 02:48:53 10° SW 02:54:06 36° WNW 02:57:34 19° NNW
Meteor 1-31 Rocket 2.7 02:52:22 21° N 02:54:56 66° W 02:58:54 10° SSW
Exosat Rocket 4.2 02:50:40 10° SSW 02:56:01 57° ESE 03:00:57 10° NNE
Cosmos 1140 Rocket 3.4 02:51:26 10° SSW 02:56:40 83° WNW 03:01:53 10° NNE
SEDSat Delta rocket 4.1 02:54:15 27° WNW 02:58:07 71° N 03:04:54 10° E
Cosmos 1943 3.5 02:56:17 10° SW 03:01:33 40° WNW 03:06:46 10° N
Cosmos 1452 Rocket 3.5 02:58:26 18° NNW 03:02:25 85° WSW 03:07:46 10° SSE
Cosmos 1689 Rocket 4.4 03:01:48 10° SE 03:04:18 24° E 03:06:47 10° NNE
CZ-4B R/B 4.3 03:01:25 10° N 03:05:46 50° W 03:10:05 10° SSW
Cosmos 1420 Rocket 4.2 03:03:50 23° NW 03:06:58 55° WSW 03:12:09 10° S
SJ-12 4.3 03:04:49 10° NNE 03:08:56 68° ESE 03:13:07 10° S
Cosmos 1437 3.3 03:10:01 33° W 03:10:23 34° W 03:13:16 10° S
METEOR-M 4.3 03:05:24 10° NNE 03:10:44 76° ESE 03:16:08 10° S
Cosmos 1190 Rocket 4.2 03:06:18 10° SSW 03:11:20 48° WNW 03:16:19 10° N
Cosmos 371 Rocket 3.9 03:07:01 10° N 03:11:44 57° ENE 03:16:31 10° SSE
SL-16 R/B 4.4 03:14:05 10° SW 03:16:07 12° WSW 03:18:04 10° WSW
H-2A R/B 3.7 03:22:53 10° SSW 03:25:37 17° WSW 03:27:01 15° W
Cosmos 1842 Rocket 3.9 03:23:11 10° SSW 03:27:23 43° W 03:31:33 10° NNW
Cosmos 676 Rocket 4.0 03:23:10 10° SSW 03:28:20 58° WNW 03:33:30 10° N
Meteor 1-27 4.4 03:23:34 10° SSW 03:29:10 52° W 03:34:39 10° NNW
CZ-2C R/B 3.8 03:29:02 15° WNW 03:29:59 16° W 03:32:54 10° SW
Cosmos 1892 2.7 03:30:15 10° N 03:34:05 89° ESE 03:38:00 10° S
Sakura Rocket 4.5 03:33:09 13° WNW 03:38:16 49° N 03:46:04 10° ENE
FENGYUN 3A 3.7 03:32:57 10° N 03:38:17 58° W 03:43:41 10° SSW
Cosmos 1076 Rocket 3.8 03:34:15 10° NNW 03:38:21 46° W 03:42:30 10° S
Cosmos 1408 3.6 03:36:27 10° N 03:39:56 49° E 03:43:28 10° SSE
In-Cosmos 22 Rocket 4.3 03:34:17 10° NNW 03:39:56 74° W 03:45:48 10° S
Cosmos 1844 Rocket 3.4 03:36:41 11° NW 03:41:38 36° WSW 03:46:50 10° S
STARLINK-43 3.9 03:39:50 13° WNW 03:43:02 47° SW 03:46:42 10° SSE
CZ-4B DEB 4.2 03:37:58 10° N 03:43:22 62° WNW 03:48:51 10° SSW
ERBS 2.5 03:43:04 10° SW 03:46:26 49° NW 03:49:46 10° NNE
Okean O Rocket 1.7 03:42:28 10° NNE 03:46:50 84° ESE 03:51:16 10° S
STARLINK-48 4.4 03:49:34 10° NNW 03:53:19 45° NE 03:57:06 10° ESE
Cosmos 1844 4.4 03:48:07 10° NW 03:53:22 37° WSW 03:58:43 10° S
CZ-4B R/B 2.7 03:50:50 10° SSW 03:53:29 22° WSW 03:56:04 10° NW
CZ-4B R/B 3.2 03:49:43 10° N 03:55:03 78° WNW 04:00:33 10° SSW
Cosmos 2221 3.7 03:55:50 10° SW 03:59:18 23° W 04:02:43 10° NW
ATLAS 5 CENTAUR R/B 4.2 03:55:07 10° S 03:59:33 27° SE 04:03:27 10° ENE
